DW5657 Weather Reports


Display with metric or nautical units.
time (UTC)temp
F
wind
direction
speed
MPH
gust
MPH
rain 1hr
in
rain 24hr
in
rain mn
in
humidity
%
barometer
mb
20260902024205 84 44 0.0 0.0 0.00 0.00 0.00 70 1015.3
20260902023704 84 44 0.0 2.0 0.00 0.00 0.00 69 1015.3
20260902022704 84 58 0.0 0.0 0.00 0.00 0.00 69 1015.2
20260902022203 84 66 0.0 0.0 0.00 0.00 0.00 69 1015.2
20260902021703 84 62 0.0 0.0 0.00 0.00 0.00 69 1015.2
20260902021203 85 62 0.0 0.0 0.00 0.00 0.00 69 1015.2
20260902020703 85 58 0.0 0.0 0.00 0.00 0.00 69 1015.2
20260902020204 85 60 0.0 0.0 0.00 0.00 0.00 68 1015.3
20260902015703 85 61 0.0 0.0 0.00 0.00 0.00 68 1015.3
20260902014703 85 55 0.0 0.0 0.00 0.00 0.00 67 1015.3
20260902014203 85 54 0.0 0.0 0.00 0.00 0.00 67 1015.2
20260902013704 86 55 0.0 0.0 0.00 0.00 0.00 66 1015.3
20260902012703 86 59 0.0 0.0 0.00 0.00 0.00 66 1015.2
20260902012203 86 62 0.0 0.0 0.00 0.00 0.00 66 1015.1
20260902011703 86 68 0.0 0.0 0.00 0.00 0.00 65 1015.0
20260902011205 87 66 0.0 0.0 0.00 0.00 0.00 64 1015.0
20260902010203 87 64 0.0 0.0 0.00 0.00 0.00 63 1014.9
20260902005703 87 65 0.0 0.0 0.00 0.00 0.00 63 1014.8
20260902005203 88 81 0.0 0.0 0.00 0.00 0.00 62 1014.9
20260902004703 88 74 0.0 0.0 0.00 0.00 0.00 62 1014.8
20260902003703 89 93 0.0 0.0 0.00 0.00 0.00 61 1014.8
20260902003203 89 93 0.0 0.0 0.00 0.00 0.00 60 1014.7
20260902002704 89 102 0.0 0.0 0.00 0.00 0.00 59 1014.7
20260902001703 90 96 0.0 0.0 0.00 0.00 0.00 58 1014.8
20260902001203 90 97 0.0 0.0 0.00 0.00 0.00 57 1014.9
20260902000703 90 215 0.0 0.0 0.00 0.00 0.00 57 1014.9
20260902000204 91 215 0.0 0.0 0.00 0.00 0.00 56 1014.9
20260901235203 91 215 0.0 0.0 0.00 0.00 0.00 55 1014.9
20260901234703 91 215 0.0 0.0 0.00 0.00 0.00 55 1014.9
20260901234203 92 215 0.0 2.0 0.00 0.00 0.00 54 1014.9
20260901233704 92 216 1.0 3.0 0.00 0.00 0.00 53 1015.0
20260901233203 92 217 1.0 3.0 0.00 0.00 0.00 54 1015.0
20260901232703 92 213 0.0 3.0 0.00 0.00 0.00 54 1015.0
20260901232204 92 209 0.0 3.0 0.00 0.00 0.00 54 1015.1
20260901231705 93 219 0.0 3.0 0.00 0.00 0.00 54 1015.0
20260901231202 93 215 0.0 1.0 0.00 0.00 0.00 53 1015.0
20260901230204 93 237 0.0 2.0 0.00 0.00 0.00 53 1015.1
20260901225205 94 218 1.0 3.0 0.00 0.00 0.00 51 1015.0
20260901224703 95 224 1.0 3.0 0.00 0.00 0.00 51 1015.0
20260901224204 95 234 2.0 5.0 0.00 0.00 0.00 50 1015.0
20260901223704 95 222 1.0 5.0 0.00 0.00 0.00 50 1015.0
20260901223203 96 223 2.0 5.0 0.00 0.00 0.00 50 1014.9
20260901222703 96 224 2.0 5.0 0.00 0.00 0.00 50 1014.9
20260901222203 96 243 1.0 3.0 0.00 0.00 0.00 49 1014.9
20260901221705 96 255 1.0 5.0 0.00 0.00 0.00 50 1014.9
20260901221203 96 238 3.0 7.0 0.00 0.00 0.00 49 1014.9
20260901220704 96 231 3.0 6.0 0.00 0.00 0.00 49 1014.9
20260901220204 96 214 3.0 6.0 0.00 0.00 0.00 49 1014.9
20260901215704 96 224 2.0 9.0 0.00 0.00 0.00 49 1014.9
20260901215205 96 215 3.0 9.0 0.00 0.00 0.00 48 1014.9
20260901214704 96 213 3.0 8.0 0.00 0.00 0.00 48 1014.9
20260901214204 96 207 2.0 6.0 0.00 0.00 0.00 49 1014.9
20260901213704 96 220 2.0 6.0 0.00 0.00 0.00 49 1014.8
20260901213205 96 178 2.0 8.0 0.00 0.00 0.00 49 1014.8
20260901212703 96 239 4.0 8.0 0.00 0.00 0.00 48 1014.9
20260901211704 96 226 2.0 6.0 0.00 0.00 0.00 52 1014.8
20260901211203 95 219 4.0 7.0 0.00 0.00 0.00 51 1014.9
20260901205204 95 241 1.0 5.0 0.00 0.00 0.00 51 1014.9
20260901204703 95 182 3.0 7.0 0.00 0.00 0.00 51 1015.0
20260901204203 95 224 2.0 8.0 0.00 0.00 0.00 51 1015.1
20260901203704 95 240 3.0 10.0 0.00 0.00 0.00 51 1015.1
20260901203203 95 221 3.0 7.0 0.00 0.00 0.00 52 1015.1
20260901202703 95 188 2.0 6.0 0.00 0.00 0.00 53 1015.1
20260901202204 94 210 3.0 7.0 0.00 0.00 0.00 52 1015.1
20260901201703 94 216 2.0 7.0 0.00 0.00 0.00 52 1015.1
20260901200703 94 225 2.0 8.0 0.00 0.00 0.00 53 1015.2
20260901200203 94 232 5.0 8.0 0.00 0.00 0.00 53 1015.2
20260901195704 94 227 3.0 9.0 0.00 0.00 0.00 54 1015.2
20260901195204 94 137 1.0 5.0 0.00 0.00 0.00 54 1015.2
20260901194703 94 217 2.0 8.0 0.00 0.00 0.00 55 1015.3
20260901194203 94 206 2.0 7.0 0.00 0.00 0.00 54 1015.4
20260901193704 93 219 1.0 3.0 0.00 0.00 0.00 55 1015.4
20260901193203 93 196 2.0 8.0 0.00 0.00 0.00 56 1015.4
20260901192703 93 219 2.0 8.0 0.00 0.00 0.00 55 1015.5
20260901192204 93 214 3.0 7.0 0.00 0.00 0.00 55 1015.5
20260901191704 93 208 6.0 12.0 0.00 0.00 0.00 55 1015.6
20260901190703 93 212 5.0 10.0 0.00 0.00 0.00 56 1015.8
20260901190204 93 224 2.0 5.0 0.00 0.00 0.00 56 1015.8
20260901185703 93 204 3.0 8.0 0.00 0.00 0.00 57 1015.9
20260901185203 93 213 3.0 8.0 0.00 0.00 0.00 56 1016.0
20260901184704 93 251 2.0 6.0 0.00 0.00 0.00 59 1016.0
20260901184204 93 211 3.0 9.0 0.00 0.00 0.00 56 1016.0
20260901183703 93 207 3.0 9.0 0.00 0.00 0.00 57 1016.1
20260901183203 93 215 2.0 8.0 0.00 0.00 0.00 56 1016.1
20260901182703 93 234 1.0 5.0 0.00 0.00 0.00 58 1016.0
20260901182203 93 225 2.0 8.0 0.00 0.00 0.00 57 1016.1
20260901181703 93 307 1.0 5.0 0.00 0.00 0.00 58 1016.0
20260901181203 92 205 3.0 5.0 0.00 0.00 0.00 58 1016.2
20260901180704 92 187 1.0 5.0 0.00 0.00 0.00 60 1016.2
20260901180203 92 215 1.0 3.0 0.00 0.00 0.00 60 1016.2
20260901175703 92 196 2.0 8.0 0.00 0.00 0.00 59 1016.2
20260901175203 92 193 3.0 7.0 0.00 0.00 0.00 58 1016.2
20260901174704 92 311 3.0 8.0 0.00 0.00 0.00 58 1016.3
20260901174204 92 210 2.0 8.0 0.00 0.00 0.00 58 1016.4
20260901173204 92 199 3.0 7.0 0.00 0.00 0.00 58 1016.5
20260901172204 92 165 4.0 10.0 0.00 0.00 0.00 58 1016.6
20260901171704 92 216 5.0 9.0 0.00 0.00 0.00 59 1016.6
20260901171203 91 242 2.0 6.0 0.00 0.00 0.00 60 1016.6
20260901170704 91 227 1.0 6.0 0.00 0.00 0.00 61 1016.7
20260901170204 91 239 3.0 9.0 0.00 0.00 0.00 61 1016.7
20260901165704 91 221 3.0 9.0 0.00 0.00 0.00 60 1016.7
20260901165203 91 227 4.0 8.0 0.00 0.00 0.00 61 1016.7
20260901164704 90 207 3.0 8.0 0.00 0.00 0.00 61 1016.7
20260901164204 90 269 3.0 8.0 0.00 0.00 0.00 62 1016.8
20260901163704 90 224 5.0 8.0 0.00 0.00 0.00 60 1016.9
20260901163204 90 227 2.0 7.0 0.00 0.00 0.00 61 1016.8
20260901162703 90 237 3.0 8.0 0.00 0.00 0.00 61 1016.9
20260901162203 90 259 4.0 9.0 0.00 0.00 0.00 61 1017.0
20260901161703 90 191 5.0 9.0 0.00 0.00 0.00 62 1016.9
20260901161203 90 217 3.0 9.0 0.00 0.00 0.00 62 1016.9
20260901160703 90 233 3.0 9.0 0.00 0.00 0.00 62 1016.9
20260901160204 89 232 3.0 8.0 0.00 0.00 0.00 62 1016.9
20260901155703 89 207 2.0 6.0 0.00 0.00 0.00 64 1016.9
20260901154703 89 202 3.0 7.0 0.00 0.00 0.00 62 1017.1
20260901154204 89 262 2.0 5.0 0.00 0.00 0.00 64 1017.1
20260901153204 88 234 3.0 7.0 0.00 0.00 0.00 65 1017.2
20260901152704 88 228 3.0 7.0 0.00 0.00 0.00 66 1017.2
20260901152204 87 237 5.0 12.0 0.00 0.00 0.00 65 1017.2
20260901151703 87 231 4.0 9.0 0.00 0.00 0.00 65 1017.2
20260901151203 87 202 3.0 8.0 0.00 0.00 0.00 67 1017.2
20260901150703 87 225 3.0 8.0 0.00 0.00 0.00 66 1017.2
20260901150203 86 217 5.0 9.0 0.00 0.00 0.00 66 1017.1
20260901145704 86 223 3.0 5.0 0.00 0.00 0.00 67 1017.1
20260901145203 86 216 3.0 7.0 0.00 0.00 0.00 68 1017.1
20260901144703 86 209 3.0 8.0 0.00 0.00 0.00 68 1017.2
20260901143703 85 236 3.0 7.0 0.00 0.00 0.00 70 1017.2
20260901142203 84 216 3.0 8.0 0.00 0.00 0.00 72 1017.3
20260901141704 83 244 2.0 5.0 0.00 0.00 0.00 73 1017.4
20260901141203 83 238 3.0 7.0 0.00 0.00 0.00 74 1017.4
20260901140705 83 235 4.0 8.0 0.00 0.00 0.00 73 1017.5
20260901140204 82 239 3.0 8.0 0.00 0.00 0.00 74 1017.5
20260901135703 82 230 3.0 6.0 0.00 0.00 0.00 75 1017.4
20260901135203 82 236 3.0 5.0 0.00 0.00 0.00 75 1017.4
20260901134705 81 225 1.0 6.0 0.00 0.00 0.00 77 1017.4
20260901134203 81 244 3.0 8.0 0.00 0.00 0.00 76 1017.3
20260901133704 81 236 2.0 5.0 0.00 0.00 0.00 76 1017.3
20260901133204 81 241 3.0 6.0 0.00 0.00 0.00 77 1017.3
20260901132703 80 223 3.0 7.0 0.00 0.00 0.00 77 1017.2
20260901132203 80 236 3.0 6.0 0.00 0.00 0.00 77 1017.2
20260901131703 80 213 1.0 6.0 0.00 0.00 0.00 78 1017.2
20260901131204 80 230 1.0 3.0 0.00 0.00 0.00 78 1017.3
20260901130703 79 218 1.0 6.0 0.00 0.00 0.00 78 1017.3
20260901130203 79 242 2.0 5.0 0.00 0.00 0.00 79 1017.3
20260901125703 79 241 1.0 5.0 0.00 0.00 0.00 79 1017.4
20260901125204 78 208 1.0 5.0 0.00 0.00 0.00 80 1017.4
20260901124205 78 196 1.0 3.0 0.00 0.00 0.00 80 1017.5
20260901123705 78 218 1.0 5.0 0.00 0.00 0.00 80 1017.5
20260901122704 77 107 0.0 1.0 0.00 0.00 0.00 81 1017.5
20260901122204 77 46 0.0 1.0 0.00 0.00 0.00 81 1017.5
20260901121704 77 44 0.0 0.0 0.00 0.00 0.00 82 1017.5
20260901121204 76 44 0.0 1.0 0.00 0.00 0.00 82 1017.4
20260901120704 76 50 0.0 0.0 0.00 0.00 0.00 82 1017.4
20260901120204 76 46 0.0 0.0 0.00 0.00 0.00 83 1017.3
20260901115703 76 42 0.0 0.0 0.00 0.00 0.00 83 1017.2
20260901115203 76 38 0.0 0.0 0.00 0.00 0.00 83 1017.1
20260901113204 75 46 0.0 0.0 0.00 0.00 0.00 83 1016.8
20260901112704 75 46 0.0 0.0 0.00 0.00 0.00 83 1016.7
20260901112203 75 48 0.0 3.0 0.00 0.00 0.00 83 1016.7
20260901111703 75 49 1.0 3.0 0.00 0.00 0.00 83 1016.6
20260901111204 75 48 0.0 0.0 0.00 0.00 0.00 83 1016.5
20260901110703 75 46 0.0 0.0 0.00 0.00 0.00 83 1016.5
20260901110203 75 46 0.0 0.0 0.00 0.00 0.00 83 1016.5
20260901105704 75 46 0.0 0.0 0.00 0.00 0.00 83 1016.5
20260901105203 75 46 0.0 0.0 0.00 0.00 0.00 83 1016.5
20260901104704 75 47 0.0 0.0 0.00 0.00 0.00 83 1016.4
20260901104204 75 46 0.0 1.0 0.00 0.00 0.00 84 1016.4
20260901103705 75 46 0.0 0.0 0.00 0.00 0.00 84 1016.4
20260901103203 75 46 0.0 2.0 0.00 0.00 0.00 84 1016.4
20260901102704 75 46 0.0 2.0 0.00 0.00 0.00 84 1016.3
20260901102203 75 38 0.0 0.0 0.00 0.00 0.00 84 1016.2
20260901101703 75 38 0.0 0.0 0.00 0.00 0.00 84 1016.3
20260901100705 75 38 0.0 0.0 0.00 0.00 0.00 84 1016.2
20260901100204 75 39 0.0 0.0 0.00 0.00 0.00 84 1016.2
20260901095705 75 38 0.0 0.0 0.00 0.00 0.00 84 1016.2
20260901095203 75 40 0.0 0.0 0.00 0.00 0.00 84 1016.2
20260901094704 75 40 0.0 0.0 0.00 0.00 0.00 84 1016.2
20260901093704 75 40 0.0 0.0 0.00 0.00 0.00 84 1016.0
20260901092704 75 40 0.0 0.0 0.00 0.00 0.00 83 1016.0
20260901091704 75 41 0.0 0.0 0.00 0.00 0.00 82 1016.0
20260901091204 76 41 0.0 0.0 0.00 0.00 0.00 82 1016.0
20260901090703 76 42 0.0 0.0 0.00 0.00 0.00 82 1015.9
20260901085704 76 44 0.0 0.0 0.00 0.00 0.00 82 1015.8
20260901085204 76 44 0.0 0.0 0.00 0.00 0.00 82 1015.8
20260901084703 76 44 0.0 0.0 0.00 0.00 0.00 82 1015.7
20260901084203 76 43 0.0 0.0 0.00 0.00 0.00 82 1015.7
20260901083703 76 42 0.0 0.0 0.00 0.00 0.00 82 1015.7
20260901083203 76 41 0.0 0.0 0.00 0.00 0.00 83 1015.6
20260901082703 76 42 0.0 0.0 0.00 0.00 0.00 83 1015.6
20260901081703 76 43 0.0 0.0 0.00 0.00 0.00 82 1015.6
20260901081204 77 43 0.0 0.0 0.00 0.00 0.00 82 1015.7
20260901080703 77 44 0.0 0.0 0.00 0.00 0.00 82 1015.7
20260901075704 77 42 0.0 0.0 0.00 0.00 0.00 81 1015.7
20260901075204 77 40 0.0 0.0 0.00 0.00 0.00 81 1015.7
20260901074704 77 39 0.0 0.0 0.00 0.00 0.00 81 1015.5
20260901074204 78 38 0.0 0.0 0.00 0.00 0.00 80 1015.5
20260901073703 78 40 0.0 0.0 0.00 0.00 0.00 80 1015.5
20260901073205 78 39 0.0 0.0 0.00 0.00 0.00 80 1015.4
20260901072704 78 36 0.0 0.0 0.00 0.00 0.00 80 1015.4
20260901071704 78 33 0.0 0.0 0.00 0.00 0.00 80 1015.3
20260901071203 78 33 0.0 0.0 0.00 0.00 0.00 80 1015.3
20260901070704 78 33 0.0 0.0 0.00 0.00 0.00 79 1015.4
20260901070203 78 32 0.0 0.0 0.00 0.00 0.00 80 1015.4
20260901065704 79 33 0.0 0.0 0.00 0.00 0.00 79 1015.3
20260901065203 79 33 0.0 0.0 0.00 0.00 0.00 79 1015.3
20260901064704 79 34 0.0 3.0 0.00 0.00 0.00 79 1015.3
20260901064203 79 41 0.0 3.0 0.00 0.00 0.00 79 1015.2
20260901063205 79 41 0.0 2.0 0.00 0.00 0.00 79 1014.9
20260901062704 79 41 0.0 2.0 0.00 0.00 0.00 79 1015.0
20260901062204 79 44 0.0 0.0 0.00 0.00 0.00 79 1015.0
20260901061703 79 43 0.0 0.0 0.00 0.00 0.00 79 1015.0
20260901061204 79 39 0.0 0.0 0.00 0.00 0.00 79 1015.0
20260901060704 80 41 0.0 2.0 0.00 0.00 0.00 78 1015.0
20260901060205 80 41 0.0 2.0 0.00 0.00 0.00 78 1015.0
20260901055703 80 43 0.0 0.0 0.00 0.00 0.00 78 1015.2
20260901055203 80 43 0.0 2.0 0.00 0.00 0.00 78 1015.3
20260901054704 80 41 0.0 2.0 0.00 0.00 0.00 78 1015.4
20260901054203 80 38 0.0 1.0 0.00 0.00 0.00 78 1015.4
20260901053704 80 33 0.0 1.0 0.00 0.00 0.00 78 1015.5
20260901053205 80 31 0.0 1.0 0.00 0.00 0.00 78 1015.6
20260901052703 80 23 0.0 2.0 0.00 0.00 0.00 77 1015.6
20260901052205 80 38 0.0 2.0 0.00 0.00 0.00 77 1015.6
20260901051703 80 34 0.0 0.0 0.00 0.00 0.00 77 1015.5
20260901050705 81 30 0.0 1.0 0.00 0.00 0.00 77 1015.6
20260901044704 81 34 0.0 0.0 0.00 0.00 0.00 76 1015.8
20260901044204 81 32 0.0 0.0 0.00 0.00 0.00 76 1016.0
20260901043703 81 33 0.0 0.0 0.00 0.00 0.00 76 1016.0
20260901043203 81 34 0.0 0.0 0.00 0.00 0.00 76 1016.0
20260901042704 81 35 0.0 1.0 0.00 0.00 0.00 76 1016.1
20260901042204 81 35 0.0 0.0 0.00 0.00 0.00 76 1016.1
20260901041703 81 35 0.0 0.0 0.00 0.00 0.00 75 1016.1
20260901041204 81 34 0.0 1.0 0.00 0.00 0.00 76 1016.2
20260901040703 81 35 0.0 2.0 0.00 0.00 0.00 76 1016.2
20260901040205 81 35 0.0 0.0 0.00 0.00 0.00 76 1016.1
20260901035703 81 34 0.0 1.0 0.00 0.00 0.00 76 1016.1
20260901035203 81 34 0.0 1.0 0.00 0.00 0.00 75 1016.1
20260901034703 81 33 0.0 0.0 0.00 0.00 0.00 75 1016.1
20260901034203 81 33 0.0 0.0 0.00 0.00 0.00 75 1016.1
20260901033703 81 32 0.0 0.0 0.00 0.00 0.00 75 1016.2
20260901032704 81 32 0.0 0.0 0.00 0.00 0.00 75 1016.2
20260901032204 81 32 0.0 0.0 0.00 0.00 0.00 75 1016.3
20260901031703 81 31 0.0 0.0 0.00 0.00 0.00 75 1016.3
20260901030704 81 34 0.0 0.0 0.00 0.00 0.00 74 1016.3
20260901025704 82 37 0.0 0.0 0.00 0.00 0.00 73 1016.3
20260901025204 82 34 0.0 0.0 0.00 0.00 0.00 72 1016.3
20260901024704 82 37 0.0 0.0 0.00 0.00 0.00 72 1016.3